CW1988 Weather Reports


Display with metric or nautical units.
time (UTC)temp
F
wind
direction
speed
MPH
gust
MPH
rain 1hr
in
rain 24hr
in
rain mn
in
humidity
%
barometer
mb
20260831054644 70 129 0.0 0.0 0.00 0.00 0.00 92 1016.3
20260831054143 70 129 0.0 0.0 0.00 0.00 0.00 92 1016.2
20260831053638 70 129 0.0 0.0 0.00 0.00 0.00 92 1016.1
20260831053137 70 129 0.0 0.0 0.00 0.00 0.00 92 1016.2
20260831052636 70 129 0.0 0.0 0.00 0.00 0.00 91 1015.8
20260831052136 71 129 0.0 0.0 0.00 0.00 0.00 91 1016.0
20260831051634 71 129 0.0 0.0 0.00 0.00 0.00 91 1016.0
20260831051127 71 129 0.0 0.0 0.00 0.00 0.00 91 1015.8
20260831050621 71 129 0.0 0.0 0.00 0.00 0.00 91 1015.8
20260831050115 71 129 0.0 0.0 0.00 0.00 0.00 91 1015.8
20260831045614 71 129 0.0 0.0 0.00 0.00 0.00 91 1015.8
20260831045109 71 129 0.0 0.0 0.00 0.00 0.00 91 1016.1
20260831044604 71 129 0.0 0.0 0.00 0.00 0.00 90 1015.8
20260831044100 71 129 0.0 0.0 0.00 0.00 0.00 90 1016.0
20260831043555 71 129 0.0 0.0 0.00 0.00 0.00 90 1016.2
20260831043050 71 129 0.0 0.0 0.00 0.00 0.00 90 1015.8
20260831042549 71 128 0.0 0.0 0.00 0.00 0.00 89 1016.0
20260831042045 71 128 0.0 0.0 0.00 0.00 0.00 89 1015.7
20260831041540 71 128 0.0 0.0 0.00 0.00 0.00 89 1016.1
20260831041039 71 129 0.0 0.0 0.00 0.00 0.00 89 1016.0
20260831040534 72 128 0.0 0.0 0.00 0.00 0.00 89 1015.4
20260831040033 72 128 0.0 0.0 0.00 0.00 0.00 88 1015.0
20260831035531 72 128 0.0 0.0 0.00 0.14 0.14 88 1015.2
20260831035026 72 128 0.0 0.0 0.00 0.14 0.14 88 1015.5
20260831034521 72 128 0.0 0.0 0.00 0.14 0.14 88 1015.6
20260831034016 72 129 0.0 0.0 0.00 0.14 0.14 87 1015.2
20260831033512 72 129 0.0 0.0 0.00 0.14 0.14 87 1015.2
20260831033007 72 129 0.0 0.0 0.00 0.14 0.14 87 1015.1
20260831032506 72 129 0.0 0.0 0.00 0.14 0.14 87 1015.2
20260831032002 72 129 0.0 0.0 0.00 0.14 0.14 87 1015.4
20260831031501 73 129 0.0 0.0 0.00 0.14 0.14 86 1015.3
20260831031001 73 129 0.0 0.0 0.00 0.14 0.14 86 1015.3
20260831030500 73 129 0.0 0.0 0.00 0.14 0.14 86 1015.3
20260831025958 72 128 0.0 1.0 0.00 0.14 0.14 86 1015.2
20260831025457 73 129 0.0 0.0 0.00 0.14 0.14 87 1015.1
20260831024953 73 128 0.0 0.0 0.00 0.14 0.14 87 1015.3
20260831024448 73 129 0.0 0.0 0.00 0.14 0.14 87 1015.4
20260831023942 73 128 0.0 0.0 0.00 0.14 0.14 87 1015.6
20260831023440 73 130 0.0 0.0 0.00 0.14 0.14 86 1015.5
20260831022936 73 128 0.0 0.0 0.00 0.14 0.14 86 1015.4
20260831022434 72 137 1.0 1.0 0.00 0.14 0.14 87 1015.5
20260831021929 73 134 0.0 0.0 0.00 0.14 0.14 87 1015.5
20260831021423 73 141 0.0 0.0 0.00 0.14 0.14 87 1015.6
20260831020919 73 140 0.0 0.0 0.00 0.14 0.14 86 1015.5
20260831020419 72 142 0.0 0.0 0.00 0.14 0.14 87 1015.5
20260831015914 72 130 0.0 0.0 0.00 0.14 0.14 87 1015.2
20260831015410 72 137 0.0 0.0 0.00 0.14 0.14 88 1015.4
20260831014904 72 137 0.0 0.0 0.00 0.14 0.14 88 1015.7
20260831014359 72 137 0.0 0.0 0.00 0.14 0.14 88 1015.6
20260831013855 72 146 0.0 0.0 0.00 0.14 0.14 89 1015.5
20260831013350 72 144 0.0 0.0 0.00 0.14 0.14 89 1015.2
20260831012849 72 140 0.0 1.0 0.00 0.14 0.14 89 1015.4
20260831012345 72 142 0.0 0.0 0.00 0.14 0.14 89 1015.6
20260831011845 72 141 0.0 0.0 0.00 0.14 0.14 89 1015.5
20260831011340 72 146 0.0 0.0 0.00 0.14 0.14 89 1015.4
20260831010836 72 136 0.0 0.0 0.00 0.14 0.14 89 1015.5
20260831010336 72 152 0.0 0.0 0.00 0.14 0.14 89 1015.4
20260831005832 72 152 0.0 0.0 0.00 0.14 0.14 89 1015.2
20260831005327 72 144 0.0 0.0 0.00 0.14 0.14 89 1015.2
20260831004821 73 133 0.0 0.0 0.00 0.14 0.14 89 1015.0
20260831004318 73 126 0.0 1.0 0.00 0.14 0.14 88 1015.1
20260831003813 73 142 0.0 1.0 0.00 0.14 0.14 88 1015.1
20260831003309 73 141 0.0 0.0 0.00 0.14 0.14 88 1015.0
20260831002808 73 142 0.0 0.0 0.00 0.14 0.14 88 1014.9
20260831002306 73 142 0.0 0.0 0.00 0.14 0.14 88 1014.8
20260831001759 73 131 0.0 0.0 0.00 0.14 0.14 88 1014.9
20260831001253 73 143 0.0 0.0 0.00 0.14 0.14 87 1014.9
20260831000750 74 137 0.0 0.0 0.00 0.14 0.14 87 1014.8
20260831000245 74 135 0.0 0.0 0.00 0.14 0.14 86 1014.7
20260830235744 74 133 0.0 0.0 0.00 0.14 0.14 86 1014.7
20260830235238 74 138 0.0 1.0 0.00 0.14 0.14 86 1014.6
20260830234733 74 136 0.0 0.0 0.00 0.14 0.14 85 1014.5
20260830234230 74 136 0.0 0.0 0.00 0.14 0.14 84 1014.6
20260830233725 75 136 0.0 0.0 0.00 0.14 0.14 84 1014.5
20260830233220 75 128 0.0 0.0 0.00 0.14 0.14 83 1014.5
20260830232716 75 129 0.0 0.0 0.00 0.14 0.14 83 1014.7
20260830232211 75 138 0.0 0.0 0.00 0.14 0.14 83 1014.7
20260830231708 75 132 0.0 0.0 0.00 0.14 0.14 82 1014.7
20260830231207 75 138 0.0 0.0 0.00 0.14 0.14 82 1014.9
20260830230702 75 146 0.0 0.0 0.00 0.14 0.14 83 1014.8
20260830230157 75 129 0.0 0.0 0.00 0.14 0.14 83 1014.7
20260830225651 75 135 0.0 0.0 0.00 0.14 0.14 83 1014.6
20260830225146 75 136 0.0 0.0 0.00 0.14 0.14 83 1014.7
20260830224645 75 148 0.0 0.0 0.00 0.14 0.14 83 1014.8
20260830224141 75 128 0.0 0.0 0.00 0.14 0.14 83 1014.7
20260830223638 75 136 0.0 0.0 0.00 0.14 0.14 82 1014.4
20260830223137 75 131 0.0 0.0 0.00 0.14 0.14 83 1014.6
20260830222632 75 136 0.0 0.0 0.00 0.14 0.14 83 1014.7
20260830222128 75 139 0.0 0.0 0.00 0.14 0.14 83 1014.7
20260830221624 75 149 0.0 0.0 0.00 0.14 0.14 83 1014.8
20260830221119 75 135 0.0 0.0 0.00 0.14 0.14 83 1014.8
20260830220615 75 150 0.0 0.0 0.00 0.14 0.14 82 1014.7
20260830220113 75 142 0.0 0.0 0.00 0.14 0.14 82 1014.7
20260830215612 75 142 0.0 1.0 0.00 0.14 0.14 82 1014.7
20260830215107 75 148 0.0 0.0 0.00 0.14 0.14 81 1014.9
20260830214602 75 150 0.0 0.0 0.00 0.14 0.14 81 1014.5
20260830214057 75 143 0.0 0.0 0.00 0.14 0.14 81 1014.6
20260830213557 76 142 0.0 0.0 0.00 0.14 0.14 80 1014.5
20260830213053 76 148 0.0 0.0 0.00 0.14 0.14 80 1014.7
20260830212549 76 146 0.0 1.0 0.00 0.14 0.14 80 1014.6
20260830212048 76 151 0.0 0.0 0.00 0.14 0.14 79 1014.5
20260830211544 76 151 0.0 0.0 0.00 0.14 0.14 80 1014.5
20260830211043 76 151 0.0 0.0 0.00 0.14 0.14 78 1014.5
20260830210538 77 151 0.0 0.0 0.00 0.14 0.14 79 1014.5
20260830210037 77 151 0.0 0.0 0.00 0.14 0.14 78 1014.4
20260830205535 77 150 0.0 0.0 0.00 0.14 0.14 79 1014.5
20260830205031 77 150 0.0 0.0 0.00 0.14 0.14 79 1014.6
20260830204530 77 150 0.0 0.0 0.00 0.14 0.14 78 1014.6
20260830204030 77 154 0.0 0.0 0.00 0.14 0.14 78 1014.5
20260830203526 77 153 0.0 1.0 0.00 0.14 0.14 77 1014.6
20260830203021 77 151 0.0 0.0 0.00 0.14 0.14 77 1014.5
20260830202515 77 135 0.0 0.0 0.00 0.14 0.14 77 1014.5
20260830202011 78 142 1.0 2.0 0.00 0.14 0.14 76 1014.7
20260830201510 78 147 0.0 0.0 0.00 0.14 0.14 74 1014.5
20260830201006 78 147 0.0 0.0 0.00 0.14 0.14 73 1014.3
20260830200501 79 147 0.0 0.0 0.00 0.14 0.14 73 1014.3
20260830200000 79 147 0.0 0.0 0.00 0.14 0.14 72 1014.8
20260830195455 79 151 0.0 0.0 0.00 0.14 0.14 72 1014.9
20260830194953 80 138 1.0 1.0 0.00 0.14 0.14 71 1015.1
20260830194452 80 155 0.0 0.0 0.00 0.14 0.14 70 1014.9
20260830193947 80 154 0.0 1.0 0.00 0.14 0.14 70 1014.8
20260830193446 80 151 1.0 1.0 0.00 0.14 0.14 69 1014.9
20260830192942 81 150 1.0 2.0 0.00 0.14 0.14 68 1015.0
20260830192437 81 155 1.0 2.0 0.00 0.14 0.14 67 1014.7
20260830191932 82 140 2.0 2.0 0.00 0.14 0.14 68 1014.9
20260830191426 82 160 2.0 3.0 0.00 0.14 0.14 68 1014.9
20260830190922 81 156 0.0 0.0 0.00 0.14 0.14 67 1014.8
20260830190417 82 156 0.0 0.0 0.00 0.14 0.14 67 1014.8
20260830185916 82 155 1.0 2.0 0.00 0.14 0.14 65 1015.0
20260830185411 83 155 1.0 1.0 0.00 0.14 0.14 63 1014.7
20260830184907 84 147 0.0 1.0 0.00 0.14 0.14 62 1014.9
20260830184406 84 144 0.0 1.0 0.00 0.14 0.14 63 1014.8
20260830183905 84 161 2.0 3.0 0.00 0.14 0.14 63 1014.6
20260830183400 84 150 1.0 2.0 0.00 0.14 0.14 62 1014.7
20260830182856 84 149 0.0 0.0 0.00 0.14 0.14 62 1014.5
20260830182351 83 145 0.0 0.0 0.00 0.14 0.14 62 1014.2
20260830181848 84 147 2.0 3.0 0.00 0.14 0.14 60 1014.3
20260830181342 84 148 1.0 2.0 0.00 0.14 0.14 60 1014.2
20260830180837 85 149 0.0 1.0 0.00 0.14 0.14 61 1014.2
20260830180336 86 139 0.0 1.0 0.00 0.14 0.14 61 1013.9
20260830175835 85 129 0.0 0.0 0.00 0.14 0.14 62 1013.8
20260830175330 85 149 1.0 2.0 0.00 0.14 0.14 58 1013.8
20260830174826 85 139 0.0 0.0 0.00 0.14 0.14 58 1013.9
20260830174321 85 146 0.0 0.0 0.00 0.14 0.14 61 1013.8
20260830173821 85 240 1.0 2.0 0.00 0.14 0.14 59 1013.7
20260830173316 85 169 1.0 2.0 0.00 0.14 0.14 59 1013.8
20260830172807 86 152 1.0 2.0 0.00 0.14 0.14 59 1013.7
20260830172306 85 143 1.0 1.0 0.00 0.14 0.14 61 1013.9
20260830171759 86 150 0.0 0.0 0.00 0.14 0.14 60 1013.7
20260830171254 86 133 2.0 3.0 0.00 0.14 0.14 60 1013.9
20260830170749 86 145 0.0 0.0 0.00 0.14 0.14 62 1013.9
20260830170248 86 149 0.0 0.0 0.00 0.14 0.14 60 1013.9
20260830165746 86 143 0.0 1.0 0.00 0.14 0.14 62 1013.9
20260830165242 86 143 0.0 0.0 0.00 0.14 0.14 61 1013.8
20260830164738 86 133 0.0 0.0 0.00 0.14 0.14 61 1013.9
20260830164234 86 135 0.0 0.0 0.00 0.14 0.14 61 1014.1
20260830163726 86 141 0.0 0.0 0.00 0.14 0.14 62 1014.1
20260830163221 86 149 0.0 1.0 0.00 0.14 0.14 63 1014.0
20260830162715 84 140 0.0 0.0 0.00 0.14 0.14 64 1014.1
20260830162211 84 150 2.0 2.0 0.00 0.14 0.14 67 1014.0
20260830161707 84 134 0.0 0.0 0.00 0.14 0.14 68 1014.1
20260830161201 83 140 0.0 0.0 0.00 0.14 0.14 66 1014.2
20260830160657 83 139 0.0 2.0 0.00 0.14 0.14 67 1014.2
20260830160156 82 149 0.0 0.0 0.00 0.14 0.14 69 1014.1
20260830155653 82 149 0.0 0.0 0.00 0.14 0.14 70 1014.2
20260830155148 82 150 2.0 3.0 0.00 0.14 0.14 68 1014.4
20260830154644 82 154 0.0 0.0 0.00 0.14 0.14 71 1014.4
20260830154139 82 147 0.0 0.0 0.00 0.14 0.14 71 1014.4
20260830153636 82 148 0.0 1.0 0.00 0.14 0.14 70 1014.5
20260830153136 81 148 0.0 0.0 0.00 0.14 0.14 74 1014.3
20260830152634 81 147 0.0 0.0 0.00 0.14 0.14 74 1014.6
20260830152134 80 148 0.0 0.0 0.00 0.14 0.14 73 1014.6
20260830151629 79 148 0.0 0.0 0.00 0.14 0.14 75 1014.5
20260830151123 78 148 0.0 0.0 0.00 0.14 0.14 76 1014.6
20260830150618 78 148 0.0 0.0 0.00 0.14 0.14 76 1014.5
20260830150113 77 148 0.0 0.0 0.00 0.14 0.14 79 1014.6
20260830145612 76 136 0.0 0.0 0.00 0.14 0.14 80 1014.5
20260830145107 76 138 0.0 0.0 0.00 0.14 0.14 80 1014.5
20260830144603 75 137 0.0 1.0 0.00 0.14 0.14 81 1014.4
20260830144059 75 149 0.0 0.0 0.00 0.14 0.14 83 1014.5
20260830143549 74 132 0.0 0.0 0.00 0.14 0.14 84 1014.3
20260830143047 74 135 0.0 0.0 0.00 0.14 0.14 85 1014.4
20260830142543 74 135 0.0 0.0 0.00 0.14 0.14 84 1014.5
20260830142037 73 134 0.0 0.0 0.00 0.14 0.14 86 1014.6
20260830141532 73 142 0.0 0.0 0.00 0.14 0.14 87 1014.8
20260830141027 73 134 0.0 0.0 0.00 0.14 0.14 87 1014.7
20260830140527 72 137 0.0 0.0 0.00 0.14 0.14 88 1014.5
20260830140023 72 134 0.0 0.0 0.00 0.14 0.14 88 1014.7
20260830135518 71 135 0.0 0.0 0.00 0.14 0.14 89 1014.7
20260830135013 71 132 0.0 0.0 0.00 0.14 0.14 89 1014.6
20260830134509 71 128 0.0 0.0 0.00 0.14 0.14 90 1014.7
20260830134004 71 131 0.0 1.0 0.00 0.14 0.14 89 1014.7
20260830133500 71 133 0.0 1.0 0.00 0.14 0.14 89 1014.8
20260830132954 70 126 0.0 0.0 0.00 0.14 0.14 90 1014.7
20260830132450 70 136 0.0 0.0 0.00 0.14 0.14 90 1014.8
20260830131950 70 137 0.0 0.0 0.00 0.14 0.14 91 1014.7
20260830131444 69 125 0.0 0.0 0.00 0.14 0.14 93 1014.8
20260830130938 69 116 0.0 0.0 0.00 0.14 0.14 93 1014.8
20260830130434 68 126 0.0 0.0 0.00 0.14 0.14 94 1015.1
20260830125932 68 132 0.0 0.0 0.00 0.14 0.14 94 1015.1
20260830125428 68 129 0.0 0.0 0.00 0.14 0.14 94 1015.0
20260830124926 68 135 0.0 0.0 0.00 0.14 0.14 94 1015.0
20260830124421 68 126 0.0 0.0 0.00 0.14 0.14 94 1015.1
20260830123918 68 126 0.0 0.0 0.00 0.14 0.14 94 1015.0
20260830123414 68 126 0.0 0.0 0.00 0.14 0.14 94 1015.2
20260830122912 68 126 0.0 0.0 0.00 0.14 0.14 94 1015.2
20260830122407 68 126 0.0 0.0 0.00 0.14 0.14 94 1015.0
20260830121906 67 124 0.0 0.0 0.00 0.14 0.14 94 1015.2
20260830121402 67 137 0.0 0.0 0.00 0.14 0.14 94 1015.1
20260830120856 67 137 0.0 0.0 0.00 0.14 0.14 94 1015.3
20260830120352 67 137 0.0 0.0 0.00 0.14 0.14 94 1015.4
20260830115848 67 137 0.0 0.0 0.00 0.14 0.14 94 1015.3
20260830115344 67 137 0.0 0.0 0.00 0.14 0.14 93 1015.2
20260830114839 68 137 0.0 0.0 0.00 0.14 0.14 93 1015.0
20260830114336 67 137 0.0 0.0 0.00 0.14 0.14 93 1015.1
20260830113831 67 136 0.0 0.0 0.00 0.14 0.14 93 1014.8
20260830113325 67 136 0.0 0.0 0.00 0.14 0.14 93 1014.8
20260830112821 67 128 0.0 0.0 0.00 0.14 0.14 93 1014.7
20260830112317 67 128 0.0 0.0 0.00 0.14 0.14 93 1014.7
20260830111813 67 128 0.0 0.0 0.00 0.14 0.14 93 1014.7
20260830111309 67 130 0.0 0.0 0.00 0.14 0.14 93 1014.6
20260830110808 67 130 0.0 0.0 0.00 0.14 0.14 93 1014.4
20260830110305 67 130 0.0 0.0 0.00 0.14 0.14 92 1014.3
20260830105803 68 129 0.0 0.0 0.00 0.14 0.14 92 1014.2
20260830105300 68 119 0.0 0.0 0.00 0.14 0.14 92 1014.6
20260830104756 68 134 0.0 0.0 0.07 0.14 0.14 92 1014.2
20260830104253 68 131 0.0 0.0 0.12 0.14 0.14 91 1014.4
20260830103751 69 136 0.0 0.0 0.05 0.13 0.13 89 1014.4
20260830103248 69 139 0.0 0.0 0.00 0.12 0.12 88 1014.4
20260830102745 69 127 0.0 0.0 0.00 0.12 0.12 87 1014.4
20260830102241 69 139 0.0 1.0 0.00 0.12 0.12 87 1014.5
20260830101737 69 182 0.0 1.0 0.00 0.12 0.12 88 1014.3
20260830101233 69 132 0.0 0.0 0.00 0.12 0.12 89 1014.6
20260830100731 68 131 0.0 0.0 0.00 0.12 0.12 91 1014.4
20260830100226 68 130 0.0 0.0 0.00 0.12 0.12 90 1014.2
20260830095725 68 128 0.0 1.0 0.00 0.12 0.12 91 1014.2
20260830095221 68 127 0.0 0.0 0.00 0.12 0.12 93 1014.4
20260830094717 68 127 0.0 0.0 0.00 0.12 0.12 92 1014.6
20260830094213 68 127 0.0 0.0 0.00 0.12 0.12 93 1014.6
20260830093708 67 127 0.0 0.0 0.00 0.12 0.12 93 1014.5
20260830093204 68 127 0.0 0.0 0.00 0.12 0.12 93 1014.7
20260830092703 68 127 0.0 0.0 0.00 0.12 0.12 92 1014.9
20260830092201 68 126 0.0 0.0 0.00 0.12 0.12 91 1014.6
20260830091656 67 128 0.0 0.0 0.00 0.12 0.12 92 1014.6
20260830091155 67 127 0.0 0.0 0.00 0.12 0.12 92 1014.4
20260830090654 67 128 0.0 0.0 0.00 0.12 0.12 93 1014.5
20260830090150 67 133 0.0 0.0 0.00 0.12 0.12 93 1014.7
20260830085649 67 127 0.0 0.0 0.00 0.12 0.12 94 1014.8
20260830085145 66 128 0.0 0.0 0.00 0.12 0.12 94 1015.0
20260830084641 66 131 0.0 0.0 0.00 0.12 0.12 95 1014.9
20260830084136 66 132 0.0 0.0 0.00 0.12 0.12 95 1014.9
20260830083631 66 132 0.0 0.0 0.00 0.12 0.12 95 1014.7
20260830083126 66 132 0.0 0.0 0.00 0.12 0.12 95 1014.8
20260830082621 66 132 0.0 0.0 0.00 0.12 0.12 95 1014.8
20260830082117 66 132 0.0 0.0 0.00 0.12 0.12 95 1014.8
20260830081613 66 132 0.0 0.0 0.07 0.12 0.12 95 1014.9
20260830081111 66 132 0.0 0.0 0.07 0.12 0.12 95 1015.0
20260830080606 66 132 0.0 0.0 0.00 0.11 0.11 94 1014.9
20260830075556 67 132 0.0 0.0 0.35 0.11 0.11 92 1014.9
20260830075056 68 131 0.0 0.0 0.47 0.11 0.11 91 1015.0
20260830074553 68 128 0.0 1.0 0.12 0.05 0.05 89 1014.9
20260830074048 68 134 0.0 0.0 0.00 0.03 0.03 89 1015.4
20260830073544 68 135 0.0 0.0 0.00 0.03 0.03 89 1015.1
20260830073039 68 126 0.0 0.0 0.00 0.03 0.03 88 1015.0
20260830072535 68 126 0.0 0.0 0.00 0.03 0.03 89 1015.0
20260830072034 68 130 0.0 0.0 0.00 0.03 0.03 89 1015.3
20260830071530 68 129 0.0 0.0 0.00 0.03 0.03 88 1015.4
20260830071027 68 129 0.0 0.0 0.00 0.03 0.03 89 1015.3
20260830070523 68 130 0.0 0.0 0.00 0.03 0.03 89 1015.5
20260830070022 68 125 0.0 0.0 0.00 0.03 0.03 89 1015.7
20260830065521 68 124 0.0 0.0 0.00 0.03 0.03 89 1015.6
20260830065020 68 126 0.0 0.0 0.07 0.03 0.03 88 1016.0
20260830064515 69 126 0.0 0.0 0.12 0.03 0.03 87 1016.2
20260830064011 69 126 0.0 0.0 0.12 0.02 0.02 87 1016.4
20260830063510 69 125 0.0 0.0 0.07 0.01 0.01 85 1016.5
20260830063009 69 124 0.0 0.0 0.00 0.00 0.00 84 1016.6
20260830062509 69 124 0.0 0.0 0.00 0.00 0.00 84 1016.4
20260830062003 69 124 0.0 0.0 0.00 0.00 0.00 84 1016.3
20260830061458 69 124 0.0 0.0 0.00 0.00 0.00 84 1016.6
20260830060954 69 124 0.0 0.0 0.00 0.00 0.00 85 1016.5
20260830060451 69 124 0.0 0.0 0.00 0.00 0.00 85 1016.4
20260830055946 69 124 0.0 0.0 0.00 0.00 0.00 85 1016.4
20260830055442 69 124 0.0 0.0 0.00 0.00 0.00 85 1016.7
20260830054937 69 124 0.0 0.0 0.00 0.00 0.00 85 1016.5